Location: Unspecified
(0.0000°N, 0.0000°E)
Time: 13:49:07
(UTC+00:00)

JUGNU - Pass Details

Date: 26 February 2020
Orbit: 836 x 864 km, 20.0° (Epoch: 01 April)

Event Time Altitude Azimuth Distance (km) Brightness Sun altitude
Rises 20:20:19 0° 259° (W) 3,376 ? -31.4°
Reaches altitude 10° 20:23:32 10° 243° (WSW) 2,440 ? -32.2°
Maximum altitude 20:27:46 20° 196° (SSW) 1,815 ? -33.3°
Enters shadow 20:28:14 20° 189° (S) 1,824 ? -33.4°
